Wind_Speed
9 10 10 11 12 11 11 11 11 11 12 13 15 17 20 23 27 11 5 6 6 6 10 13 16 23 26 8 9 3 4 3 5 8 6 8 12 7 9 19 7 8 15 17 24
9 10 11 12 12 11 11 11 11 11 12 13 15 17 19 22 24 12 11 10 8 7 9 14 11 12 7 7 3 5 3 4 16 13 20 16 14 15 8 11 14 12 24 29 31
9 11 12 11 11 11 10 10 10 11 11 12 15 16 18 20 5 4 9 11 9 8 13 18 21 10 8 6 6 3 2 11 22 26 24 16 10 2 11 11 8 9 16 20 23
9 10 10 9 9 9 9 9 9 10 11 12 14 16 19 4 3 1 7 9 8 9 12 13 9 9 6 7 2 5 18 24 15 12 14 11 10 14 14 8 9 14 17 20 19
9 9 10 9 9 9 9 9 9 9 11 12 13 15 6 2 9 7 6 5 8 10 13 8 9 11 8 3 6 11 17 28 24 20 22 20 16 16 14 13 17 20 21 16 21
8 8 9 8 8 9 9 9 10 10 11 12 11 12 2 4 5 6 6 6 10 13 18 15 4 11 5 9 13 8 25 12 14 19 10 17 9 7 9 14 17 16 15 15 18
7 8 7 7 7 8 8 8 9 9 10 9 8 7 5 11 7 7 7 10 13 19 6 18 20 10 10 9 6 17 8 5 12 8 1 4 7 7 10 16 16 15 13 11 15
7 7 7 7 7 8 8 9 9 9 8 7 6 2 7 12 10 13 9 15 16 10 13 12 14 8 3 7 5 8 8 6 7 2 6 6 3 11 12 16 16 12 10 10 11
7 7 7 7 7 7 8 9 9 9 9 7 5 4 9 6 6 9 15 19 17 13 13 10 3 6 10 5 4 4 3 2 8 8 7 4 5 16 15 17 12 12 9 9 8
8 7 7 6 6 7 8 9 9 8 6 3 8 6 8 10 12 13 14 18 6 6 6 5 3 2 6 3 6 6 7 6 7 4 14 14 14 21 17 18 11 10 8 8 8
9 7 6 7 6 7 6 5 3 2 4 8 6 5 1 9 8 8 16 10 8 6 7 7 3 7 12 4 7 19 11 11 11 12 6 23 19 24 18 10 12 7 6 5 5
8 7 7 8 7 8 6 4 10 7 7 17 18 14 5 16 6 9 14 6 7 10 8 5 5 6 8 10 4 8 5 4 5 6 17 23 20 14 10 10 5 9 9 8 5
7 7 7 9 10 13 10 13 13 19 2 8 14 8 7 7 9 9 11 10 9 12 14 6 5 5 4 6 9 7 7 7 6 2 16 21 12 6 7 7 4 5 10 11 6
5 7 7 7 8 9 11 17 9 12 2 5 6 4 5 6 2 1 8 8 7 7 1 6 5 2 6 9 8 7 8 9 10 8 5 1 5 7 5 5 5 12 9 6 3
5 7 7 7 11 7 13 10 12 3 2 9 8 8 6 5 8 5 8 7 7 9 6 8 16 14 12 6 4 5 11 10 14 12 5 5 7 3 5 3 3 8 7 5 5
4 6 6 7 13 18 16 21 4 3 4 4 7 6 8 7 2 6 3 0 4 7 9 6 6 7 1 13 10 9 11 10 6 5 5 8 7 7 4 3 6 9 8 7 5
4 6 9 9 5 12 20 6 2 2 1 5 6 7 9 5 2 2 5 4 6 6 7 2 5 5 6 9 10 10 8 4 6 5 3 4 12 3 5 6 12 9 7 4 8
4 5 7 14 16 16 9 4 2 6 12 15 5 8 6 7 4 6 7 5 12 10 5 6 3 2 3 3 4 6 6 3 4 3 3 9 6 1 4 8 11 10 6 11 6
4 6 8 11 8 7 4 1 4 6 7 5 4 5 6 12 8 4 10 12 5 7 4 5 7 5 7 5 6 6 5 5 1 6 6 4 3 3 5 8 9 8 10 7 4
5 6 12 13 10 1 2 4 5 4 9 10 5 6 7 4 4 5 8 5 6 10 7 6 3 6 10 4 8 7 5 7 5 3 4 4 2 2 4 8 9 7 7 4 6
4 2 2 9 8 3 2 5 3 5 8 7 10 7 6 2 1 8 1 8 10 9 9 5 5 7 6 5 6 6 6 6 2 5 3 2 1 4 7 13 10 7 7 7 8
4 2 9 7 2 3 3 3 3 3 5 6 8 8 7 8 6 6 7 6 8 6 3 5 2 3 6 8 7 8 7 5 4 2 4 4 1 6 12 9 10 8 7 8 10
2 3 4 3 1 4 6 5 9 13 8 8 7 7 5 2 3 6 7 7 7 5 3 5 3 3 3 8 6 6 7 7 5 6 5 4 3 9 12 11 8 7 9 11 10
2 4 4 2 3 6 1 5 6 8 8 8 6 7 4 6 2 3 6 5 7 5 5 4 3 1 3 3 2 6 8 7 6 4 9 6 8 4 9 7 6 9 13 12 9
1 1 1 3 5 6 7 3 8 4 2 7 8 12 8 8 8 10 9 4 5 5 3 4 4 6 5 6 6 9 13 14 10 9 6 5 8 7 8 8 7 7 12 13 8
3 4 5 2 6 7 7 8 9 10 9 7 7 8 12 7 5 7 7 6 3 4 3 2 3 5 2 7 19 17 15 13 12 12 11 8 5 8 8 8 7 10 11 11 6
9 7 1 4 3 4 1 7 11 6 9 17 14 12 11 7 6 6 5 3 1 3 2 2 2 3 4 3 5 8 11 12 13 11 8 7 4 6 10 10 9 9 11 8 7
Wind_Direction
293 297 298 291 286 289 291 293 297 304 309 314 316 317 323 325 324 314 256 246 215 269 288 296 278 253 244 250 256 302 21 246 87 146 119 183 111 110 106 88 82 105 68 89 90
303 295 287 281 282 285 288 292 296 301 307 314 316 319 328 332 327 275 246 253 245 274 293 284 300 282 236 247 259 117 79 357 141 115 164 143 122 146 122 87 62 63 53 57 66
293 284 281 283 284 286 287 288 294 301 308 314 317 320 332 329 299 249 207 229 238 261 277 294 291 297 297 282 178 322 247 80 105 121 122 113 111 86 121 70 63 88 77 64 68
293 285 282 285 287 285 284 288 293 301 308 312 314 328 326 331 6 232 197 215 236 256 277 292 292 308 292 285 254 71 63 73 66 82 111 103 99 71 75 94 95 83 94 85 73
293 287 283 285 286 284 285 286 291 299 303 307 318 329 344 245 253 238 179 193 231 253 250 253 276 265 241 237 81 62 70 76 71 65 70 80 77 97 102 98 83 81 66 64 67
297 293 289 295 293 287 288 288 292 294 296 303 325 331 303 270 200 173 174 217 247 241 264 272 313 330 14 59 53 85 75 74 50 44 90 95 97 17 110 110 89 79 76 72 71
305 292 297 297 296 297 296 295 292 293 294 305 327 345 275 245 217 156 196 249 268 267 311 342 350 12 334 91 212 57 40 102 34 84 119 152 55 77 146 108 104 102 92 86 79
304 297 298 296 295 290 289 287 289 290 296 305 311 336 253 295 244 181 203 247 267 280 285 306 346 334 326 137 34 59 64 17 291 48 114 81 261 147 153 114 101 94 89 81 70
306 297 295 295 297 293 291 287 283 283 285 294 308 200 274 251 196 228 208 228 233 231 255 267 300 255 311 89 43 64 134 247 291 294 103 114 226 166 154 118 114 115 116 109 103
306 296 300 302 309 310 301 291 282 289 276 278 273 306 268 242 187 203 229 246 272 265 260 223 236 260 313 119 233 138 125 240 233 253 210 180 239 170 125 106 120 120 126 127 124
303 300 303 301 317 319 311 313 328 283 234 214 185 236 86 111 139 202 214 220 270 276 269 234 142 228 248 221 276 135 150 179 232 250 49 96 85 67 92 130 136 131 120 128 157
303 296 297 299 308 300 275 255 253 289 289 235 256 251 138 176 184 201 195 202 216 244 250 283 230 336 333 340 315 109 85 202 169 219 106 87 85 93 107 118 141 146 149 158 145
295 282 285 298 310 291 236 243 296 302 311 288 220 234 231 208 230 182 174 225 242 259 255 156 210 246 318 30 27 60 36 351 327 297 98 117 82 71 71 96 151 131 89 98 121
280 266 272 296 311 312 260 278 304 17 0 219 218 199 225 258 92 47 214 222 290 230 33 130 199 243 324 52 44 360 6 336 326 334 250 248 107 52 73 53 61 105 95 106 129
274 258 260 260 298 298 279 315 347 38 327 163 204 182 230 231 146 212 266 334 340 347 54 41 42 30 41 7 343 13 359 344 318 305 110 19 82 79 354 68 126 116 115 138 135
273 245 242 274 270 270 316 315 304 29 265 250 151 179 249 235 237 151 221 3 291 25 78 79 74 58 194 346 43 14 12 326 3 3 62 347 110 35 18 121 110 122 135 142 167
273 237 230 232 249 305 316 338 4 168 184 238 166 198 225 150 85 221 173 54 53 27 349 49 36 342 11 356 7 7 25 326 11 2 81 117 62 100 155 110 135 139 145 160 70
297 258 251 253 264 304 345 18 100 284 265 288 167 222 202 135 108 20 44 28 43 31 346 18 1 110 305 219 338 33 69 101 316 295 190 16 61 267 115 134 131 141 118 102 137
316 306 268 247 248 280 51 276 234 245 346 8 277 302 89 38 12 57 52 19 58 64 37 357 1 115 324 36 54 347 22 274 221 274 78 105 106 323 186 133 119 112 105 130 135
350 312 268 255 219 234 84 239 276 321 323 6 47 72 25 30 56 68 3 313 17 14 23 325 22 6 353 124 49 80 355 14 351 14 82 72 36 133 134 121 99 112 126 133 111
338 328 190 182 157 62 217 270 250 34 346 44 22 41 65 10 97 68 78 34 15 345 36 25 66 314 21 50 29 17 23 10 37 61 118 106 74 201 135 132 143 117 113 87 83
340 336 153 172 85 205 236 202 320 80 40 39 66 39 37 37 13 116 79 60 24 34 14 322 93 332 76 47 22 70 57 64 79 317 108 116 69 119 103 113 109 115 124 105 90
315 253 138 212 321 303 239 138 57 13 49 32 51 28 49 77 29 67 112 83 56 55 41 318 11 10 346 13 355 63 53 56 48 43 7 108 137 79 107 116 131 144 111 88 86
310 344 345 53 267 271 353 80 75 30 38 24 28 353 4 40 121 313 117 87 73 85 357 51 11 194 151 86 321 85 84 67 93 63 70 97 120 116 121 130 117 88 107 98 90
304 296 175 1 329 357 37 221 140 131 16 61 1 53 46 25 27 37 70 125 161 116 43 78 30 4 60 37 60 92 57 51 52 60 88 110 79 85 105 103 90 84 101 97 84
35 20 339 6 330 9 11 19 66 65 54 43 47 58 79 58 50 16 29 25 32 36 68 42 336 21 62 15 69 31 43 45 60 57 72 77 83 118 119 100 85 80 85 87 72
357 338 339 274 307 340 27 39 58 84 61 55 42 58 45 18 1 327 311 285 322 139 88 78 57 65 315 304 108 50 28 42 72 59 76 58 348 45 79 75 69 72 78 89 76
Height
808 807 805 805 805 804 803 801 800 799 798 796 794 792 789 785 780 776 774 769 769 768 767 767 767 765 762 760 755 755 798 808 799 827 836 828 818 819 824 824 838 833 830 833 833
806 806 805 804 803 802 801 800 799 797 796 795 793 791 789 785 779 774 768 768 767 767 766 765 762 759 765 758 762 777 802 796 775 799 826 824 813 820 823 832 840 837 835 838 833
806 805 804 803 802 801 800 798 797 796 795 794 792 791 788 785 782 766 763 766 766 767 765 763 762 759 764 757 764 771 792 780 793 810 812 827 828 828 834 842 844 845 845 845 844
805 804 803 801 800 800 798 797 795 794 793 792 792 790 787 785 795 764 764 765 765 766 766 764 760 767 771 775 752 778 773 786 815 805 810 826 827 838 835 846 847 848 849 848 848
804 802 801 800 799 797 796 795 794 792 792 791 791 789 786 786 776 764 764 764 765 766 765 765 769 767 776 763 755 782 784 793 807 819 829 836 842 840 848 849 850 851 850 851 853
802 800 799 798 797 796 794 793 792 791 791 790 790 789 787 792 765 764 765 765 764 764 760 761 759 754 759 773 779 785 795 807 812 823 832 837 849 849 854 850 855 856 859 861 861
800 799 798 797 795 794 793 792 791 791 790 790 789 788 787 778 764 764 765 764 763 762 760 757 755 761 761 785 780 784 802 804 813 817 829 823 840 860 856 856 859 862 863 864 864
799 798 797 795 794 793 791 791 790 790 790 789 788 788 785 763 763 764 765 765 763 763 761 760 758 759 763 770 776 795 812 837 819 801 828 822 843 853 852 855 863 869 870 870 869
797 797 796 794 793 792 790 790 789 789 789 788 788 788 782 763 761 762 764 762 761 761 760 760 760 767 766 796 810 809 845 845 829 799 820 832 839 834 848 856 866 868 872 873 871
796 795 794 792 792 791 789 788 787 787 787 787 789 795 771 764 759 761 761 761 760 759 762 764 770 785 788 797 824 825 844 838 832 811 812 833 831 829 853 856 868 871 874 873 871
795 793 792 792 791 790 789 788 789 789 785 780 775 770 757 757 758 759 759 759 759 763 786 770 794 809 792 772 773 792 816 826 815 799 813 835 849 844 855 866 862 873 874 878 874
793 792 791 791 790 789 789 789 779 775 785 767 764 761 755 754 763 756 757 767 771 787 772 784 802 772 765 766 772 786 798 805 800 792 825 854 872 865 864 859 869 867 872 877 875
791 791 790 790 788 787 786 781 773 771 784 766 759 758 754 753 759 758 755 759 772 780 772 785 778 762 766 778 786 793 802 801 801 786 821 832 867 874 865 864 868 866 873 874 874
790 790 790 790 791 787 783 773 774 772 807 781 766 755 752 750 762 748 748 756 760 772 764 775 765 768 777 786 786 810 783 786 791 803 828 805 880 875 871 877 873 871 877 879 881
788 788 789 790 788 786 777 774 773 773 849 772 766 749 748 761 758 758 747 751 772 768 766 790 784 784 788 788 775 799 782 790 787 799 805 828 858 880 873 876 877 879 882 882 881
787 787 788 789 787 779 776 774 773 814 844 781 759 765 768 758 756 754 754 748 750 768 773 784 769 781 791 777 778 779 793 797 797 810 844 845 856 888 880 875 880 882 882 880 880
786 786 788 787 784 780 778 775 817 834 794 784 775 764 769 770 766 763 770 779 797 809 808 787 795 784 778 794 784 797 819 854 859 859 869 850 868 886 872 869 876 881 881 879 880
785 786 786 785 783 782 778 800 839 808 797 766 761 762 776 768 771 772 782 797 783 793 814 823 831 800 784 798 806 813 824 856 869 868 859 851 879 892 869 868 867 873 875 878 878
786 786 784 780 782 783 792 825 815 797 766 769 765 778 781 777 780 782 797 804 791 793 823 826 823 788 788 787 796 813 835 812 834 830 860 883 882 872 868 872 874 880 879 881 879
786 785 780 777 781 782 803 814 792 769 764 767 792 783 806 794 798 800 816 807 798 792 791 810 830 797 790 786 794 809 806 844 846 865 877 891 896 886 876 880 883 885 884 882 884
785 788 774 775 777 789 815 797 781 765 764 780 792 796 794 795 794 807 816 808 798 800 799 806 823 825 803 818 824 827 835 833 836 851 885 890 902 873 869 876 884 884 883 883 884
786 800 773 775 796 794 802 778 774 769 765 773 782 790 800 799 806 807 819 813 801 803 820 815 823 842 831 811 805 815 831 836 866 864 874 885 893 861 865 871 876 879 879 883 885
793 788 773 774 807 803 779 776 776 780 781 785 791 789 788 799 814 807 812 806 805 809 821 818 837 859 841 835 816 825 827 832 841 853 867 885 893 862 865 874 874 876 880 886 888
795 801 783 777 779 790 785 786 791 778 784 784 791 789 794 804 797 807 816 809 806 810 811 814 831 841 861 841 828 839 833 833 847 875 869 880 878 869 875 878 877 880 884 888 889
793 798 790 809 799 790 790 784 794 798 786 790 802 802 809 830 821 822 814 816 809 813 812 825 847 837 828 824 824 831 836 839 851 855 876 877 879 878 878 879 878 878 882 886 890
805 807 798 797 791 793 796 801 800 799 802 807 810 804 813 830 828 834 823 822 822 817 820 822 848 839 840 830 839 848 842 843 847 854 865 870 877 867 872 873 878 881 883 888 889
808 805 804 800 797 802 801 799 803 798 801 806 812 817 824 820 813 812 811 811 811 819 827 830 840 850 863 839 846 875 859 855 859 861 869 886 875 865 874 878 884 887 887 890 892